Regional Weather Roundup
Issued by NWS

Home | Current Version | Previous Version | Text Only | Print | Product List | Glossary Off
Versions: 1 2 3 4 5 6 7 8 9 10 11 12 13 14 15 16 17 18 19 20 21 22 23 24 25 26 27 28 29 30 31 32 33 34 35 36 37 38 39 40 41 42 43 44 45 46 47 48 49 50

000
ASUS45 KTFX 031819
RWRMT
MONTANA REGIONAL WEATHER ROUNDUP
NATIONAL WEATHER SERVICE GREAT FALLS MT
1200 PM MDT THU SEP 03 2015

NOTE: "FAIR" INDICATES FEW OR NO CLOUDS BELOW 12000 FEET WITH NO
SIGNIFICANT WEATHER AND/OR OBSTRUCTIONS TO VISIBILITY.

MTZ001>007-043-031900-
WEST OF THE DIVIDE

CITY           SKY/WX    TMP DP  RH WIND       PRES   REMARKS
KALISPELL      CLOUDY    57  46  66 SE13      29.94S
MISSOULA       CLOUDY    51  46  83 NW6       29.98F
BUTTE          CLOUDY    53  39  59 CALM      29.98R
MULLAN PASS    CLOUDY    42  38  85 CALM      29.99F
DEER LODGE       N/A     57  39  51 E5        29.98S
EUREKA           N/A     52  46  82 CALM      29.97S
HAMILTON         N/A     52  45  76 N5        29.97S
LIBBY            N/A     61  41  48 NW3       29.92F
PLAINS           N/A     60  45  57 E7        29.96S
RONAN            N/A     52  48  86 SE3       30.02S
$$

MTZ008-052>055-031900-
SOUTHWEST MONTANA

CITY           SKY/WX    TMP DP  RH WIND       PRES   REMARKS
BOZEMAN        MOSUNNY   70  42  36 N5        29.89S
DILLON           N/A    N/A N/A N/A MISG      29.91S
W YELLOWSTONE  MOSUNNY   68  30  24 SW20G29   29.98F
THREE FORKS      N/A     68  26  20 E5        29.90S
TWIN BRIDGES     N/A     63  36  36 N13       29.90S
$$

MTZ009-010-012-014-046-048-049-054-031900-
EAST SLOPES AND CENTRAL MONTANA

CITY           SKY/WX    TMP DP  RH WIND       PRES   REMARKS
CUT BANK       CLOUDY    51  46  83 SW5       29.97R
GREAT FALLS    LGT RAIN  56  44  64 N16       29.93S
MALMSTROM AFB  CLOUDY    59  41  49 N14G20    29.93S
HELENA         CLOUDY    60  40  47 W10       29.91R
CONRAD           N/A     51  51 100 N1        29.99S
$$

MTZ011-013-016-021-045-047-050-051-031900-
NORTH CENTRAL MONTANA

CITY           SKY/WX    TMP DP  RH WIND       PRES   REMARKS
HAVRE          CLOUDY    67  40  37 NW7       29.92F
LEWISTOWN      SUNNY     68  39  34 MISG      29.92F
N BAR RANCH      N/A     64  37  36 N7G16     29.93F
CHINOOK          N/A     70  39  32 NW5       29.89F
FORT BENTON      N/A     64  41  42 W13       29.92S
$$

MTZ017>020-022>027-061-062-031900-
NORTHEAST MONTANA

CITY           SKY/WX    TMP DP  RH WIND       PRES   REMARKS
GLASGOW        PTSUNNY   74  44  34 N16       29.81R
JORDAN           N/A     76  40  27 N13G22    29.82S
SIDNEY         MOSUNNY   84  46  26 NW18        N/A
WOLF POINT     PTSUNNY   78  42  27 NE21      29.76F
MALTA            N/A     73  42  32 N9        29.83F
PLENTYWOOD       N/A     75  45  33 N20G26    29.77S
POPLAR           N/A     75  45  33 NW17G24   29.77F
SCOBEY           N/A     70  43  37 N20       29.82F
$$

MTZ028>42-056>058-031900-
SOUTHCENTRAL AND SOUTHEAST MONTANA

CITY           SKY/WX    TMP DP  RH WIND       PRES   REMARKS
BAKER          PTSUNNY   79  46  31 NW16      29.79F
BILLINGS       CLOUDY    71  36  27 NE5       29.86F
LIVINGSTON     SUNNY     70  38  31 E20G31    29.86F
MILES CITY     CLOUDY    75  42  30 NE9       29.78F
EKALAKA          N/A     76  41  28 W10       29.83F
FORSYTH          N/A     75  39  27 SW5       29.81S
LAUREL           N/A     71  36  27 NE5       29.87S
ROUNDUP          N/A     71  35  26 N9        29.81F
$$

REGIONAL REPORTS...DAKOTAS

CITY           SKY/WX    TMP DP  RH WIND       PRES   REMARKS
WILLISTON      MOSUNNY   84  58  40 NW14      29.72R
MINOT          SUNNY     88  67  49 SE10      29.63F HX  91
DICKINSON      MOSUNNY   91  48  22 W15G22    29.71R
BEACH            N/A     81  46  30 NW21G28   29.77F
CROSBY           N/A     81  54  39 N16       29.73R
BISMARCK       SUNNY     91  62  37 SE12      29.68F HX  91
GRAND FORKS    MOSUNNY   86  71  60 S23G31    29.73F HX  91
FARGO          SUNNY     88  71  57 SE16G32   29.77F HX  94
BUFFALO SD       N/A     85  45  24 W16       29.72R
RAPID CITY     MOSUNNY   93  56  28 SE6       29.78F HX  91
$$

REGIONAL REPORTS...WYOMING/IDAHO/WASHINGTON

CITY           SKY/WX    TMP DP  RH WIND       PRES   REMARKS
GILLETTE       PTSUNNY   81  41  24 VRB3      29.88F
SHERIDAN       PTSUNNY   73  36  25 CALM      29.86F
BUFFALO WY     PTSUNNY   77  37  23 SE8       29.92F
CODY           CLOUDY    66  41  39 N5        29.89F
YELLOWSTONE LA   N/A     66  38  35 VRB3      30.08F
IDAHO FALLS    MOSUNNY   73  40  30 SW17      29.92F
SALMON         CLOUDY    63  43  48 CALM      29.87S
BOISE          PTSUNNY   62  43  49 NW21      29.93R
SPOKANE        MOSUNNY   58  36  43 S6        29.96S
$$

REGIONAL REPORTS...ALBERTA

CITY           SKY/WX    TMP DP  RH WIND       PRES   REMARKS
EDMONTON       MOSUNNY   54  41  62 NW9       29.95S
CALGARY        MOSUNNY   54  37  54 E10       29.95S
LETHBRIDGE     CLOUDY    52  41  66 VRB2      29.96R
MEDICINE HAT   CLOUDY    54  50  87 NW7       29.95F
WATERTON GATE    N/A     48  43  81 NW3         N/A
CARDSTON         N/A     52  43  71 N1          N/A
MILK RIVER       N/A     52  50  93 S5          N/A
ONEFOUR          N/A     63  39  42 NW9         N/A
$$

REGIONAL REPORTS...SASKATCHEWAN

CITY           SKY/WX    TMP DP  RH WIND       PRES   REMARKS
SWIFT CURRENT  MOSUNNY   64  43  45 NW10      29.92S
REGINA         PTSUNNY   70  48  46 NW23      29.84S
SASKATOON      CLOUDY    59  46  63 W14       29.94R
CYPRESS HILLS    N/A     55  39  54 N3          N/A
VAL MARIE        N/A     70  39  32 N14         N/A
ROCKGLEN         N/A     64  43  45 N20G25      N/A
ASSINIBOIA       N/A     57  41  54 NW9         N/A
$$


USA.gov is the U.S. government's official web portal to all federal, state and local government web resources and services.